TimeCST,TemperatureF,Dew PointF,Humidity,Sea Level PressureIn,VisibilityMPH,Wind Direction,Wind SpeedMPH,Gust SpeedMPH,PrecipitationIn,Events,Conditions,WindDirDegrees,DateUTC
4:15 AM,42.8,37.4,81,30.01,10.0,NE,8.1,-,N/A,,Overcast,50,2012-11-10 10:15:00
4:35 AM,41.0,37.4,87,29.98,10.0,NE,9.2,-,N/A,Rain,Light Rain,40,2012-11-10 10:35:00
4:55 AM,41.0,37.4,87,30.01,10.0,East,5.8,-,N/A,,Light Drizzle,80,2012-11-10 10:55:00
5:15 AM,41.0,37.4,87,30.00,10.0,ENE,5.8,-,N/A,Rain,Light Rain,70,2012-11-10 11:15:00
6:35 AM,42.8,39.2,87,29.96,7.0,NE,5.8,-,N/A,,Overcast,50,2012-11-10 12:35:00
6:55 AM,42.8,41.0,93,29.96,7.0,ENE,5.8,-,N/A,,Overcast,70,2012-11-10 12:55:00
7:15 AM,42.8,41.0,93,29.96,4.0,ENE,5.8,-,N/A,,Overcast,70,2012-11-10 13:15:00
7:35 AM,42.8,41.0,93,29.96,2.5,ENE,5.8,-,N/A,,Overcast,70,2012-11-10 13:35:00
7:55 AM,44.6,41.0,87,29.95,2.5,NE,4.6,-,N/A,,Overcast,50,2012-11-10 13:55:00
8:15 AM,44.6,42.8,93,29.95,2.5,Calm,Calm,-,N/A,,Overcast,0,2012-11-10 14:15:00
8:35 AM,44.6,42.8,93,29.94,2.0,NE,4.6,-,N/A,,Overcast,50,2012-11-10 14:35:00
8:55 AM,44.6,42.8,93,29.93,2.0,East,5.8,-,N/A,,Light Drizzle,80,2012-11-10 14:55:00
9:15 AM,46.4,42.8,87,29.92,1.8,East,6.9,-,N/A,,Overcast,80,2012-11-10 15:15:00
9:35 AM,46.4,44.6,93,29.91,2.0,ENE,4.6,-,N/A,,Overcast,70,2012-11-10 15:35:00
9:55 AM,46.4,44.6,93,29.90,2.0,ENE,4.6,-,N/A,,Overcast,70,2012-11-10 15:55:00
10:15 AM,46.4,44.6,93,29.90,2.0,East,8.1,-,N/A,,Overcast,90,2012-11-10 16:15:00
10:35 AM,48.2,44.6,87,29.89,2.5,East,6.9,-,N/A,,Overcast,90,2012-11-10 16:35:00
10:55 AM,50.0,44.6,82,29.88,2.5,East,6.9,-,N/A,,Overcast,90,2012-11-10 16:55:00
11:15 AM,50.0,44.6,82,29.87,2.5,East,4.6,-,N/A,,Overcast,90,2012-11-10 17:15:00
11:35 AM,50.0,44.6,82,29.86,2.5,East,3.5,-,N/A,,Overcast,90,2012-11-10 17:35:00
11:55 AM,50.0,46.4,87,29.84,3.0,East,6.9,-,N/A,,Overcast,80,2012-11-10 17:55:00
12:15 PM,51.8,46.4,82,29.81,3.0,East,6.9,-,N/A,,Haze,90,2012-11-10 18:15:00
12:35 PM,51.8,46.4,82,29.80,4.0,East,8.1,-,N/A,,Haze,90,2012-11-10 18:35:00
12:55 PM,53.6,46.4,77,29.79,4.0,East,8.1,-,N/A,,Haze,100,2012-11-10 18:55:00
1:15 PM,55.4,50.0,82,29.78,5.0,ESE,8.1,-,N/A,,Haze,110,2012-11-10 19:15:00
1:35 PM,57.2,50.0,77,29.76,7.0,ESE,12.7,-,N/A,,Scattered Clouds,110,2012-11-10 19:35:00
1:55 PM,57.2,50.0,77,29.74,7.0,ESE,11.5,-,N/A,,Clear,110,2012-11-10 19:55:00
2:15 PM,60.8,50.0,68,29.74,7.0,ESE,6.9,-,N/A,,Scattered Clouds,120,2012-11-10 20:15:00
2:35 PM,59.0,51.8,77,29.73,7.0,ESE,5.8,-,N/A,,Mostly Cloudy,110,2012-11-10 20:35:00
2:55 PM,59.0,51.8,77,29.72,7.0,East,9.2,-,N/A,,Overcast,100,2012-11-10 20:55:00
3:15 PM,59.0,51.8,77,29.73,10.0,ESE,8.1,-,N/A,,Scattered Clouds,110,2012-11-10 21:15:00
3:35 PM,60.8,51.8,72,29.73,10.0,East,6.9,-,N/A,,Scattered Clouds,100,2012-11-10 21:35:00
3:55 PM,60.8,51.8,72,29.74,10.0,ESE,5.8,-,N/A,,Mostly Cloudy,120,2012-11-10 21:55:00
4:15 PM,62.6,51.8,68,29.75,10.0,SSE,9.2,-,N/A,,Scattered Clouds,160,2012-11-10 22:15:00
4:35 PM,60.8,51.8,72,29.76,10.0,South,9.2,-,N/A,,Clear,170,2012-11-10 22:35:00
4:55 PM,60.8,51.8,72,29.76,10.0,South,8.1,-,N/A,,Clear,170,2012-11-10 22:55:00
5:15 PM,60.8,50.0,68,29.77,10.0,SSE,5.8,-,N/A,,Clear,160,2012-11-10 23:15:00
5:35 PM,59.0,50.0,72,29.77,10.0,SE,4.6,-,N/A,,Clear,140,2012-11-10 23:35:00
5:55 PM,59.0,50.0,72,29.77,10.0,SSE,6.9,-,N/A,,Clear,160,2012-11-10 23:55:00
6:15 PM,59.0,50.0,72,29.76,10.0,SE,6.9,-,N/A,,Clear,140,2012-11-11 00:15:00
6:35 PM,59.0,50.0,72,29.74,10.0,SE,6.9,-,N/A,,Clear,140,2012-11-11 00:35:00
6:55 PM,59.0,50.0,72,29.73,10.0,SE,6.9,-,N/A,,Clear,130,2012-11-11 00:55:00
7:15 PM,59.0,51.8,77,29.73,10.0,ESE,4.6,-,N/A,,Scattered Clouds,120,2012-11-11 01:15:00
7:35 PM,59.0,51.8,77,29.72,10.0,SSE,8.1,-,N/A,,Scattered Clouds,160,2012-11-11 01:35:00
7:55 PM,60.8,51.8,72,29.71,10.0,SSE,10.4,-,N/A,,Mostly Cloudy,160,2012-11-11 01:55:00
8:15 PM,60.8,51.8,72,29.73,10.0,SSW,6.9,-,N/A,,Scattered Clouds,200,2012-11-11 02:15:00
8:35 PM,60.8,51.8,72,29.73,10.0,SSE,8.1,-,N/A,,Scattered Clouds,160,2012-11-11 02:35:00
8:55 PM,62.6,51.8,68,29.73,10.0,South,9.2,-,N/A,,Scattered Clouds,180,2012-11-11 02:55:00
9:15 PM,62.6,53.6,72,29.72,10.0,South,11.5,17.3,N/A,,Clear,170,2012-11-11 03:15:00
9:35 PM,62.6,51.8,68,29.72,10.0,South,11.5,19.6,N/A,,Clear,180,2012-11-11 03:35:00
9:55 PM,62.6,51.8,68,29.71,10.0,South,11.5,-,N/A,,Clear,170,2012-11-11 03:55:00
10:35 PM,62.6,51.8,68,29.71,10.0,South,9.2,-,N/A,,Scattered Clouds,170,2012-11-11 04:35:00
10:55 PM,62.6,51.8,68,29.72,10.0,South,8.1,-,N/A,,Scattered Clouds,180,2012-11-11 04:55:00
11:15 PM,62.6,50.0,63,29.73,10.0,South,12.7,17.3,N/A,,Mostly Cloudy,180,2012-11-11 05:15:00
11:35 PM,62.6,50.0,63,29.73,10.0,South,12.7,16.1,N/A,,Scattered Clouds,180,2012-11-11 05:35:00
11:55 PM,62.6,48.2,59,29.73,10.0,South,12.7,17.3,N/A,,Scattered Clouds,170,2012-11-11 05:55:00